Flugplatz Erfurt

Bericht für EDDE

vom 23.05. um 18:20 UTC

variable Windrichtung mit 1 kt

Sichtweite 10 km oder mehr

gute Sicht, keine Wolken < 5000 ft, keine CB, keine Wettererscheinungen (CAVOK)

Temperatur 18.0°C

Taupunkt 10.0°C

Luftfeuchtigkeit 59%

Luftdruck 1017 hPa

keine wesentliche Wetteränderung innerhalb den nächsten 2 Stunden zu erwarten

EDDE 231820Z VRB01KT CAVOK 18/10 Q1017 NOSIG

Prognose für EDDE

vom 23.05. um 17:00 UTC

Zwischen 18:00 UTC und 18:00 UTC

Wind 5 kt aus 300°

Sichtweite 10 km oder mehr

keine signifikanten Wettererscheinungen

keine Wolken


Zwischen 18:00 und 21:00 UTC übergehend zu

Wind 5 kt aus 210°

Sichtweite 10 km oder mehr

keine signifikanten Wettererscheinungen

keine Wolken


Am 24.05. zwischen 06:00 und 09:00 UTC übergehend zu

Wind 5 kt aus 290°

Sichtweite 10 km oder mehr

keine signifikanten Wettererscheinungen

keine Wolken

TAF EDDE 231700Z 2318/2418 30005KT CAVOK BECMG 2318/2321 21005KT BECMG 2406/2409 29005KT
Impressum